Regional Weather Roundup
Issued by NWS Upton, NY

Current Version | Previous Version | Graphics & Text | Print | Product List | Glossary Off
Versions: 1 2 3 4 5 6 7 8 9 10 11 12 13 14 15 16 17 18 19 20 21 22 23 24 25 26 27 28 29 30 31 32 33 34 35 36 37 38 39 40 41 42 43 44

000
ASUS41 KOKX 261305
RWROKX

REGIONAL WEATHER ROUNDUP
NATIONAL WEATHER SERVICE NEW YORK NY
800 AM EST FRI DEC 26 2014

NOTE: "FAIR" INDICATES FEW OR NO CLOUDS BELOW 12,000 FEET WITH NO
SIGNIFICANT WEATHER AND/OR OBSTRUCTIONS TO VISIBILITY.

NYZ071-072-176-178-NJZ106-104-261400-
NEW YORK CITY METRO AREA


CITY           SKY/WX    TMP DP  RH WIND       PRES   REMARKS
CENTRAL PARK   CLEAR     40  27  59 W8        30.26R WCI  34
LAGUARDIA APRT CLEAR     41  28  60 W12       30.24R
KENNEDY INTL   PTCLDY    41  30  65 W13       30.25R
NEWARK/LIBERTY PTCLDY    38  29  70 W10       30.25R WCI  31
BRNX BOT. GARD   N/A    N/A N/A N/A SW7       30.24R
TETERBORO      CLEAR     36  29  75 SW7       30.23R WCI  30
$$

NYZ177-179-078>081-261400-
LONG ISLAND NEW YORK

CITY           SKY/WX    TMP DP  RH WIND       PRES   REMARKS
FARMINGDALE    CLEAR     38  30  73 W9        30.23R WCI  31
ISLIP          PTCLDY    36  30  79 W7        30.21R WCI  30
SHIRLEY        CLEAR     36  30  79 W5        30.22R WCI  32
WESTHAMPTON    CLEAR     30  26  85 CALM      30.22R
MONTAUK POINT    N/A     43  35  73 W10       30.21R
$$

NYZ052-065-067-261400-
HUDSON VALLEY

CITY           SKY/WX    TMP DP  RH WIND       PRES   REMARKS
WHITE PLAINS   CLEAR     36  28  73 W7        30.20R WCI  30
NEWBURGH       PTCLDY    34  28  80 W7        30.21R WCI  28
MONTGOMERY     CLEAR     35  27  72 W12       30.19R WCI  27
POUGHKEEPSIE   CLEAR     29  26  89 CALM      30.20S
ALBANY         CLOUDY    41  28  60 NW12G21   30.20R
$$

NJZ001-105-106-008-010-013-015-019>022-104-261400-
NEW JERSEY

CITY           SKY/WX    TMP DP  RH WIND       PRES   REMARKS
NEWARK/LIBERTY PTCLDY    38  29  70 W10       30.25R WCI  31
TETERBORO      CLEAR     36  29  75 SW7       30.23R WCI  30
CALDWELL       CLEAR     31  28  89 CALM      30.25R
MORRISTOWN     CLEAR     39  30  70 W7        30.25R WCI  34
SOMERVILLE     CLEAR     28  25  88 CALM      30.25R
SUSSEX         CLEAR     27  26  96 CALM      30.23R
ANDOVER        NOT AVBL
TRENTON        CLEAR     36  28  73 W8        30.27R WCI  30
MILLVILLE      CLEAR     36  30  79 NW6       30.29S WCI  31
ATLANTIC CITY  CLEAR     35  29  78 NW8       30.28R WCI  29
WRIGHTSTOWN    CLEAR     35  30  79 W5        30.25R WCI  31
TOMS RIVER     CLEAR     34  28  80 CALM      30.26F
BELMAR         PTCLDY    36  25  64 W6        30.26R WCI  31
$$

PAZ047>061-062-071-261400-
EASTERN PENNSYLVANIA

CITY           SKY/WX    TMP DP  RH WIND       PRES   REMARKS
PHILADELPHIA   CLEAR     37  28  70 W8        30.30R WCI  31
ALLENTOWN      CLEAR     30  24  78 SW7       30.26R WCI  23
SCRANTON       CLEAR     33  26  75 SW9       30.23R WCI  25
$$

CTZ002-004>006-009-010-012-RIZ004-006-007-MAZ004-011-015-261400-
SOUTHERN NEW ENGLAND
 IN CT

CITY           SKY/WX    TMP DP  RH WIND       PRES   REMARKS
BRADLEY INTL   MOCLDY    41  29  62 NW9       30.17R
HARTFORD       PTCLDY    36  29  75 CALM      30.19R
DANBURY        CLEAR     28  24  85 CALM      30.21R
WTRBRY/OXFORD  CLEAR     39  30  70 CALM      30.19R
BRIDGEPORT     CLEAR     38  30  73 W3        30.21R
MERIDEN        CLEAR     28  26  92 CALM      30.20R
NEW HAVEN      PTCLDY    41  30  65 CALM      30.19S
CHESTER        FAIR      36  30  80 W3        30.19R
GROTON         CLEAR     38  30  73 W6        30.20R WCI  33
WILLIMANTIC    CLEAR     34  29  82 W3        30.18R

 IN RI

CITY           SKY/WX    TMP DP  RH WIND       PRES   REMARKS
PROVIDENCE     PTCLDY    38  29  70 SW8       30.17R WCI  32
BLOCK ISLAND   CLEAR     43  34  70 W10       30.19R
WESTERLY       CLEAR     40  30  67 VRB3      30.19R

 IN MA

CITY           SKY/WX    TMP DP  RH WIND       PRES   REMARKS
BOSTON         CLEAR     39  29  67 SW13      30.12R WCI  31
WORCESTER      CLEAR     35  28  75 W10       30.11R WCI  27
WESTFIELD      MOCLDY    41  28  60 W5        30.16R
PROVINCETOWN   CLEAR     43  32  65 W14       30.13R
NANTUCKET      CLEAR     43  32  65 W10       30.16R
$$

ANZ330-335-338-340-345-350-353-355-261400-
COASTAL MARINE OBSERVATIONS


STATION/POSITION TIME  SKY/WX   TEMP    WIND        PRES    VSBY  WAVE
                                AIR SEA DIR/SP/G                  HT/PER
                 (UTC)          (F)     (DEG/KT/KT) (MB)    (MI)  (FT/S)
NY HARB ENTRANCE 1300            42 45  280/ 16/ 17 1024.4          2/ 3
4S FIRE IS       1300               47                N/A           4/ 5
20S FIRE ISLAND  1200            44 49              1023.2          4/ 5
23SW MTP         1300                                 N/A           5/ 6
HUDSON CANYON    1300            47 55  310/ 16/ 19 1023.2          6/ 6
EXECUTION ROCKS  1300            43 42  260/ 10/ 14   N/A
WESTERN LI SOUND 1300            41     260/ 14/ 16   N/A           1/ 2
CENTRAL LI SOUND 1200            43 44  270/ 14/ 17   N/A           2/ 4
EASTERN LI SOUND NOT AVBL
ROBBINS REEF     1300            39                 1023.2
$$


>>>>>>>>>>>>>>>>>>>>>>>>>>>> KEY <<<<<<<<<<<<<<<<<<<<<<<<<<<
>                                                          <
>     SKY/WX - SKY CONDITION/PRESENT WEATHER               <
>     TMP    - TEMPERATURE IN FAHRENHEIT                   <
>     DP     - DEWPOINT IN FAHRENHEIT                      <
>     RH     - RELATIVE HUMIDITY IN PERCENT                <
>     WIND   - DIRECTION AND SPEED IN MPH                  <
>     PRES   - MEAN SEA LEVEL PRESSURE IN INCHES OF HG     <
>     WCI    - WIND CHILL INDEX                            <
>     VSB    - VISIBILITY IN MILES                         <
>     HX     - HEAT INDEX                                  <
>     TC     - TEMPERATURE IN CELSIUS                      <
>     VRB    - VARIABLE WIND DIRECTION                     <
>                                                          <
>>>>>>>>>>>>>>>>>>>>>>>>>>>> KEY <<<<<<<<<<<<<<<<<<<<<<<<<<<





USA.gov is the U.S. government's official web portal to all federal, state and local government web resources and services.